Regional Weather Roundup
Issued by NWS

Home | Current Version | Previous Version | Text Only | Print | Product List | Glossary Off
Versions: 1 2 3 4 5 6 7 8 9 10 11 12 13 14 15 16 17 18 19 20 21 22 23 24 25 26 27 28 29 30 31 32 33 34 35 36 37 38 39 40 41 42 43 44 45 46 47 48 49 50

000
ASUS43 KBIS 281710
RWRND

NORTH DAKOTA REGIONAL WEATHER ROUNDUP
NATIONAL WEATHER SERVICE BISMARCK ND
1100 AM CST FRI NOV 28 2014

NOTE: "FAIR" INDICATES FEW OR NO CLOUDS BELOW 12,000 FEET WITH NO
SIGNIFICANT WEATHER AND/OR OBSTRUCTIONS TO VISIBILITY.


NDZ001>003-009>011-017-281800-
NORTHWEST NORTH DAKOTA

CITY           SKY/WX    TMP DP  RH WIND       PRES   REMARKS
WILLISTON      CLOUDY    18  13  80 SE10      29.64F WCI   6
MINOT          CLOUDY    10   4  76 E15       29.75F WCI  -7
MINOT AFB      FLURRIES   9   6  84 SE16      29.76F WCI  -8
$$

NDZ018>021-031>035-040>046-281800-
SOUTHWEST NORTH DAKOTA

CITY           SKY/WX    TMP DP  RH WIND       PRES   REMARKS
BISMARCK       PTSUNNY   14   9  80 E12       29.75F WCI   0
DICKINSON      CLOUDY    23  19  85 E7        29.60F WCI  15
GARRISON         N/A     12   9  87 E14       29.72F WCI  -3
HETTINGER ARPT PTSUNNY   32  25  75 SE5       29.63F
$$

NDZ004>008-012>016-024-026-027-054-281800-
NORTHEAST NORTH DAKOTA

CITY           SKY/WX    TMP DP  RH WIND       PRES   REMARKS
GRAND FORKS    LGT SNOW  14   9  80 SE5       29.94S WCI   6
GRND FRKS AFB  LGT SNOW  13   9  82 SE7       29.93F WCI   3
DEVILS LAKE    CLOUDY    12   0  57 SE15      29.82F WCI  -4
$$

NDZ022-023-025-028>030-036>039-047>053-281800-
SOUTHEAST NORTH DAKOTA

CITY           SKY/WX    TMP DP  RH WIND       PRES   REMARKS
FARGO          CLOUDY    16   8  71 SE7       29.91F WCI   6
JAMESTOWN      CLOUDY    10   5  80 E12       29.80F WCI  -5
$$



USA.gov is the U.S. government's official web portal to all federal, state and local government web resources and services.